Regional Weather Roundup
Issued by NWS

Home | Current Version | Previous Version | Graphics & Text | Print | Product List | Glossary On
Versions: 1 2 3 4 5 6 7 8 9 10 11 12 13 14 15 16 17 18 19 20 21 22 23 24 25 26 27 28 29 30 31 32 33 34 35 36 37 38 39 40 41 42 43 44 45 46 47 48 49 50
000
ASUS43 KFSD 010302
RWRSD

WEATHER ROUNDUP FOR SOUTH DAKOTA
NATIONAL WEATHER SERVICE SIOUX FALLS SD
900 PM CST SAT JAN 31 2015

NOTE: "FAIR" INDICATES FEW OR NO CLOUDS BELOW 12,000 FEET WITH NO
SIGNIFICANT WEATHER AND/OR OBSTRUCTIONS TO VISIBILITY.


SDZ001>005-009-010-012>017-010400-
NORTHWEST AND NORTH CENTRAL SOUTH DAKOTA

CITY           SKY/WX    TMP DP  RH WIND       PRES   REMARKS
BUFFALO          N/A     11   7  84 NE18      30.10R WCI  -7
FAITH            N/A     12   6  77 NE15G24   30.17R WCI  -4
MOBRIDGE       CLOUDY    11  -2  56 N18G28    30.23R WCI  -7
$$

SDZ012>016-024>037-041>051-057-063-072>074-010400-
SOUTHWEST AND SOUTH CENTRAL SOUTH DAKOTA

CITY           SKY/WX    TMP DP  RH WIND       PRES   REMARKS
RAPID CTY ARPT SNOW      17  16  95 NE13      30.08R VSB<1/4 WCI   4
PIERRE         CLOUDY    14   4  64 NE21      30.16R WCI  -4
CUSTER         CLOUDY    17  14  88 NE3       29.90R FOG
ELLSWORTH AFB  LGT SNOW  16  14  93 NE8       30.08  FOG     WCI   5
PHILIP         CLOUDY    14   8  77 NE16      30.15R WCI  -2
PINE RIDGE     CLOUDY    19  15  84 N8        30.02R WCI   9
WINNER         LGT SNOW  19  15  84 N16       30.07S VSB 3/4 WCI   4
$$

SDZ004>011-016>023-039-040-010400-
NORTHEAST SOUTH DAKOTA

CITY           SKY/WX    TMP DP  RH WIND       PRES   REMARKS
ABERDEEN       CLOUDY     7  -4  60 NE22G33   30.26S WCI -14
WATERTOWN      CLOUDY    13   3  64 NE18G29   30.12F WCI  -4
SISSETON         N/A      8  -1  66 NE22      30.27R WCI -12
$$

SDZ017-020-022-023-036>040-048>070-010400-
SOUTHEAST SOUTH DAKOTA

CITY           SKY/WX    TMP DP  RH WIND       PRES   REMARKS
SIOUX FALLS    LGT SNOW  24  21  88 NE20      30.04F VSB 1   WCI  10
HURON          CLOUDY    17   7  64 NE20G25   30.16R WCI   1
MITCHELL       FRZ RAIN  22  20  92 N21G28    30.10S FOG     WCI   6
YANKTON        CLOUDY    27  25  93 NE17      30.00F WCI  14
$$

ABBREVIATIONS USED IN REMARKS
   TC - TEMPERATURE IN CELSIUS
  WCI - WIND CHILL INDEX
   HX - HEAT INDEX
  VSB - VISIBILITY




USA.gov is the U.S. government's official web portal to all federal, state and local government web resources and services.